Regional Weather Roundup
Issued by NWS

Home | Current Version | Previous Version | Graphics & Text | Print | Product List | Glossary On
Versions: 1 2 3 4 5 6 7 8 9 10 11 12 13 14 15 16 17 18 19 20 21 22 23 24 25 26 27 28 29 30 31 32 33 34 35 36 37 38 39 40 41 42 43 44 45 46 47 48 49 50
000
ASUS43 KLMK 270002
RWRKY
KENTUCKY REGIONAL WEATHER ROUNDUP
NATIONAL WEATHER SERVICE LOUISVILLE KY
800 PM EDT TUE JUL 26 2016

NOTE "FAIR" INDICATES FEW OR NO CLOUDS BELOW 12,000 FEET
WITH NO SIGNIFICANT WEATHER AND/OR OBSTRUCTIONS TO VISIBILITY.

KYZ001>023-026-027-061>063-070>075-270100-
WESTERN AND SOUTH CENTRAL KENTUCKY

CITY           SKY/WX    TMP DP  RH WIND       PRES   REMARKS
PADUCAH        CLOUDY    81  73  76 N7        29.96S
HENDERSON      CLOUDY    81  75  83 NW5       29.96S
OWENSBORO      CLOUDY    84  80  88 CALM      29.97S HX  97
HOPKINSVILLE   CLOUDY    88  73  60 N3        29.96R HX  96
BOWLING GREEN  PTCLDY    91  70  49 W6        29.97R HX  96
GLASGOW        NOT AVBL
$$

KYZ024-025-028>034-038-045-046-053-270100-
NORTH CENTRAL KENTUCKY

CITY           SKY/WX    TMP DP  RH WIND       PRES   REMARKS
LOUISVILLE/SDF MOCLDY    82  72  71 N6        29.97R
LOUISVILLE/LOU MOCLDY    81  73  76 N5        29.98R
FORT KNOX      CLEAR     81  73  77 NW7       29.97R
$$

KYZ035>037-039>044-047>052-055>060-089>105-270100-
NORTHEAST KENTUCKY

CITY           SKY/WX    TMP DP  RH WIND       PRES   REMARKS
LEXINGTON      CLEAR     83  73  72 NE8       30.00R
COVINGTON      CLOUDY    82  73  74 CALM      30.00S
FRANKFORT      LGT RAIN  78  72  81 NW5       29.99R
$$

KYZ054-064>069-076>088-106>120-270100-
SOUTHEAST KENTUCKY

CITY           SKY/WX    TMP DP  RH WIND       PRES   REMARKS
JACKSON        CLEAR     82  72  71 CALM      30.02R
LONDON         CLEAR     88  70  55 SW6       30.01R HX  93
SOMERSET       CLEAR     86  72  62 CALM      30.01R HX  92
MIDDLESBORO    CLEAR     85  75  71 W3        30.01R HX  93
MONTICELLO     CLEAR    N/A N/A N/A NW3       30.01R
$$





USA.gov is the U.S. government's official web portal to all federal, state and local government web resources and services.